Погода в Сасоне

Турция     38°20′21″N   41°24′16″E
темп.,
°C
ветер,
м/с
пор.,
м/с
влажн.,
%
обл.,
%
осадки,
мм/ч
давл.,
гПа
погр.,
м
26 сентября, вс
вс2600:00+14ссв33350 0.0 101732
03:00+13ссв55410 0.0 101769
06:00+12ссв56410 0.0 101873
09:00+18св34240 0.0 1017618
12:00+22св22150 0.0 10161305
15:00+25с02130 0.0 10141644
18:00+21св22170 0.0 101314
21:00+18ссв44210 0.0 101449
27 сентября, пн
пн2700:00+17ссв44220 0.0 101344
03:00+16ссв44240 0.0 101339
06:00+15ссв43256 0.0 101237
09:00+22юв11171 0.0 1011423
12:00+26ююз321391 0.0 10091073
15:00+27ююз331278 0.0 10071131
18:00+21юз22180 0.0 100711
21:00+19св11200 0.0 100811
28 сентября, вт
вт2800:00+18всв11210 0.0 100711
03:00+17всв22220 0.0 100711
06:00+16всв22230 0.0 100811
09:00+22ю22160 0.0 1009442
12:00+25ю33130 0.0 10091511
15:00+26ююз44120 0.0 10082374
18:00+21з11180 0.0 100811
21:00+20вюв22200 0.0 101011
29 сентября, ср
ср2900:00+18в11260 0.0 101011
03:00+18всв22270 0.0 101011
06:00+17всв32310 0.0 101111
09:00+22ююв23240 0.0 1011868
12:00+25ююз33210 0.0 10102012
15:00+26юз34170 0.0 10092842
18:00+21з11221 0.0 100911
21:00+20св22211 0.0 101011
30 сентября, чт
чт3000:00+18в11270 0.0 101011
03:00+18св22290 0.0 101012
06:00+17св33320 0.0 101215
09:00+22ю11243 0.0 1012523
12:00+25ююз32215 0.0 10112017
15:00+26юз43170 0.0 10102764
18:00+21юз22222 0.0 101111
21:00+19ссв11250 0.0 101211